Location: Hilton Head Island
(32.2163°N, 80.7526°W)
Time: 20:22:52
(UTC-04:00)

Tiros 1 despin weight - Pass Details

Date: 20 February 2026
Orbit: 556 x 593 km, 48.2° (Epoch: 10 March)

Event Time Altitude Azimuth Distance (km) Brightness Sun altitude
Rises 22:02:09 0° 291° (WNW) 2,733 - -48.4°
Reaches altitude 10° 22:05:01 10° 271° (W) 1,840 - -48.9°
Maximum altitude 22:07:46 17° 230° (SW) 1,439 - -49.5°
Drops below altitude 10° 22:10:33 10° 188° (S) 1,845 - -50.0°
Sets 22:13:26 0° 168° (SSE) 2,746 - -50.6°
